• Processing (Info)

  • MPEC 2013-K06 : 2013 JW28

    The following Minor Planet Electronic Circular may be linked-to from your own Web pages, but must not otherwise be redistributed electronically.

    A form allowing access to any MPEC is at the bottom of this page.


    Read MPEC 2013-K05 Read MPEC 2013-K07


    M.P.E.C. 2013-K06                                Issued 2013 May 17, 21:38 UT
    
         The Minor Planet Electronic Circulars contain information on unusual
             minor planets and routine data on comets.  They are published
       on behalf of Commission 20 of the International Astronomical Union by the
              Minor Planet Center, Smithsonian Astrophysical Observatory,
                              Cambridge, MA 02138, U.S.A.
    
                 Prepared using the Tamkin Foundation Computer Network
    
                                  MPC@CFA.HARVARD.EDU
                URL https://www.minorplanetcenter.net/    ISSN 1523-6714
    
                                       2013 JW28
    
    Observations:
         K13J28W* C2013 05 10.39451 14 55 48.914-05 59 51.33         21.7 wLEK006F51
         K13J28W  C2013 05 10.40935 14 55 51.418-06 00 09.51         21.8 wLEK006F51
         K13J28W  C2013 05 10.42423 14 55 53.917-06 00 27.72         21.6 wLEK006F51
         K13J28W  C2013 05 10.43910 14 55 56.417-06 00 45.94         21.6 wLEK006F51
         K13J28W _C2013 05 11.50070114 59 13.515-06 21 41.74         21.0 RtEK006568
         K13J28W _C2013 05 11.50195414 59 13.718-06 21 43.16         21.0 RtEK006568
         K13J28W _C2013 05 11.50320514 59 13.915-06 21 44.57         21.2 RtEK006568
         K13J28W KC2013 05 15.22028215 09 05.67 -07 26 41.8          22.4 VrEK006H21
         K13J28W KC2013 05 15.23560315 09 07.47 -07 26 56.9          21.9 VrEK006H21
         K13J28W KC2013 05 15.24877615 09 09.13 -07 27 09.0          22.0 VrEK006H21
         K13J28W _C2013 05 15.48531015 09 40.687-07 30 37.24         21.4 RtEK006568
         K13J28W _C2013 05 15.48656015 09 40.833-07 30 38.47         21.3 RtEK006568
         K13J28W _C2013 05 15.48815315 09 41.015-07 30 39.79         21.2 RtEK006568
         K13J28W _C2013 05 15.48940415 09 41.161-07 30 40.97         21.3 RtEK006568
         K13J28W _C2013 05 15.49147015 09 41.404-07 30 42.88         21.4 RtEK006568
         K13J28W _C2013 05 15.49316215 09 41.598-07 30 44.45         21.0 RtEK006568
    
    Observer details:
    568 Mauna Kea.  Observers R. J. Wainscoat, M. Micheli, D. Woodworth,
        P. Forshay.  Measurers M. Micheli, R. J. Wainscoat.  3.6-m
        Canada-France-Hawaii Telescope + CCD.
    F51 Pan-STARRS 1, Haleakala.  Observers N. Primak, A. Schultz, S. Watters,
        T. Goggia.  Measurer PS1 Science Consortium.  1.8-m Ritchey-Chretien
        + CCD.
    H21 Astronomical Research Observatory, Westfield.  Observer R. Holmes.
        Measurers S. Foglia, L. Buzzi, H. Devore, A. Kostin, T. Linder, T. Lister,
        T. Vorobjov.  0.81-m f/4.0 astrograph + CCD.
    
    Orbital elements:
    2013 JW28                                                Earth MOID = 0.0120 AU
    Epoch 2013 Apr. 18.0 TT = JDT 2456400.5                 MPC
    M   8.21025              (2000.0)            P               Q
    n   0.35871491     Peri.  342.42652     -0.99987663     -0.01103107
    a   1.9617173      Node   196.95315     +0.01434396     -0.93135511
    e   0.4875518      Incl.    2.19774     -0.00640100     -0.36394501
    P   2.75           H   24.8           G   0.15           U   8
    Residuals in seconds of arc
    130510 F51  0.0   0.0     130511 568  0.1-  0.1-    130515 568  0.1-  0.1-
    130510 F51  0.0   0.1+    130515 H21  0.5+  0.6+    130515 568  0.1-  0.1-
    130510 F51  0.0   0.1+    130515 H21  0.3-  0.0     130515 568  0.1-  0.1-
    130510 F51  0.1+  0.0     130515 H21  0.6+  0.4+    130515 568  0.2-  0.1-
    130511 568  0.1-  0.1-    130515 568  0.1-  0.2-
    130511 568  0.1-  0.1-    130515 568  0.1-  0.2-
    
    Ephemeris:
    2013 JW28                a,e,i = 1.96, 0.49, 2                   q = 1.0053
    Date    TT    R. A. (2000) Decl.     Delta      r     Elong.  Phase     V
    2013 04 17    10 53 46.6 +13 47 01   0.05070 1.0385   132.2    45.7    20.1
    ...
    2013 05 02    14 16 44.6 -02 09 04   0.09003 1.0953   166.0    12.9    20.5
    ...
    2013 05 10    14 54 29.9 -05 51 11   0.1271  1.1344   167.9    10.8    21.3
    ...
    2013 05 16    15 10 51.7 -07 38 10   0.1589  1.1668   167.6    10.7    21.8
    2013 05 17    15 13 00.6 -07 53 10   0.1645  1.1724   167.4    10.8    21.9
    2013 05 18    15 15 02.1 -08 07 34   0.1702  1.1781   167.2    10.9    22.0
    ...
    2013 05 24    15 25 07.0 -09 23 47   0.2062  1.2134   165.5    12.1    22.5
    ...
    2013 06 01    15 35 01.4 -10 47 30   0.2594  1.2629   161.7    14.6    23.2
    ...
    2013 06 16    15 49 33.2 -12 58 01   0.3771  1.3613   152.4    20.2    24.4
    
    A. U. Tomatic                (C) Copyright 2013 MPC           M.P.E.C. 2013-K06
    

    Read MPEC 2013-K05 Read MPEC 2013-K07


    MPEC number:

    Enter an MPEC number in one of the following forms:

    • 1997-B01 (the full form)
    • J97B01 (the packed version of the full form)
    • B01 (the abbreviated form)